Wind_Speed
7 6 6 7 8 11 12 13 16 19 20 21 20 20 18 19 19 20 19 20 20 21 20 16 12 8 7 3 5 6 4 5 5 4 2 2 3 3 4 5 3 4 3 1 1 4 5
6 9 11 13 13 15 17 18 19 20 21 22 22 20 20 20 19 19 19 20 20 21 21 18 13 8 7 5 6 6 3 4 4 4 6 3 4 9 8 3 0 3 2 1 2 1 3
12 13 15 16 17 20 22 22 23 23 23 23 23 23 22 21 20 21 21 22 21 22 19 17 12 7 8 6 6 5 4 2 3 4 5 7 6 3 6 5 3 2 4 5 2 2 1
15 16 18 19 21 22 23 23 23 23 23 22 23 24 21 22 20 20 20 21 21 21 19 13 11 6 5 5 6 5 4 1 2 2 3 5 7 7 4 7 2 1 2 3 3 3 3
17 19 18 18 19 20 20 20 20 21 22 21 21 23 23 22 21 19 20 21 20 19 16 11 6 4 5 3 4 4 3 3 1 1 3 4 3 4 4 3 2 1 2 2 1 3 5
16 16 16 17 17 18 18 20 20 19 20 20 21 22 22 22 17 18 19 22 18 13 7 6 3 2 3 3 3 3 3 1 3 2 1 1 2 2 2 3 3 4 3 2 4 4 3
13 13 14 15 16 17 17 17 18 19 19 18 20 23 20 13 15 14 19 16 7 4 5 6 6 4 3 4 3 4 3 2 5 3 3 2 3 6 5 2 4 5 2 3 2 1 7
13 13 13 14 13 14 14 16 17 17 17 17 19 20 17 10 9 11 12 8 8 9 10 11 9 10 9 5 2 5 4 4 4 5 5 3 6 4 9 6 4 3 1 3 3 1 6
14 13 13 12 13 13 14 15 15 16 16 16 17 19 18 8 6 8 8 11 13 14 6 4 3 1 2 5 3 3 4 2 2 5 7 5 4 9 4 5 4 3 3 2 2 7 0
15 13 13 12 11 12 14 14 14 15 14 14 15 16 15 3 5 5 5 11 13 13 4 3 0 1 2 2 3 3 4 1 2 5 6 2 6 7 4 3 5 2 4 1 4 5 3
15 13 11 9 10 11 11 11 11 11 12 12 13 12 10 1 2 4 6 10 12 6 4 3 1 0 2 2 2 1 3 2 4 4 4 4 9 9 5 2 6 2 3 2 1 0 2
14 11 9 8 8 8 9 11 11 10 9 11 12 8 6 2 4 5 6 9 8 1 6 2 1 1 1 1 1 2 1 2 2 2 1 3 1 2 2 4 3 9 3 2 2 2 3
12 10 7 5 5 6 8 9 9 9 10 11 11 6 4 3 4 3 3 5 0 4 2 2 1 1 2 2 1 3 3 3 4 5 5 2 2 2 2 5 3 5 2 2 2 2 2
11 8 5 3 4 6 6 7 9 10 10 10 6 3 3 3 4 4 4 3 4 1 4 2 2 1 2 3 1 2 1 3 5 3 3 6 4 8 6 3 3 4 2 2 4 3 4
10 7 4 2 2 4 5 5 6 8 6 5 4 3 3 3 5 6 4 3 4 3 2 4 3 1 2 0 2 1 3 3 2 8 3 4 3 1 2 2 1 5 3 2 0 0 4
9 7 5 4 1 2 3 3 4 5 4 4 3 3 3 2 6 8 2 4 3 2 3 2 2 3 3 4 2 1 1 2 4 4 1 2 4 1 3 3 6 2 8 3 2 3 5
11 7 5 5 4 2 1 2 3 3 3 2 2 2 4 3 7 4 3 5 4 4 5 3 1 1 2 3 2 2 2 2 4 1 2 1 1 4 3 7 8 4 3 2 1 3 3
11 9 8 6 5 3 0 2 3 3 2 3 4 2 4 6 3 3 2 3 5 6 4 3 3 2 3 1 3 3 2 3 9 2 0 3 1 4 3 2 1 2 3 8 4 5 4
13 11 8 6 5 4 4 2 2 2 1 4 4 2 2 4 2 3 2 3 4 2 4 4 1 4 2 4 4 4 0 1 9 4 3 1 3 3 3 2 2 5 5 6 3 2 11
14 11 8 5 3 2 3 4 4 1 1 4 4 2 2 2 2 1 2 4 4 4 4 6 3 1 1 4 3 1 1 3 5 5 4 2 3 7 5 3 2 4 6 9 11 7 12
15 12 9 6 4 3 2 1 2 5 2 3 4 2 2 2 3 2 1 2 3 2 3 4 3 7 6 3 3 3 4 4 2 6 2 2 6 5 9 7 5 10 12 15 17 20 18
15 12 9 6 4 3 3 4 3 2 5 3 4 4 3 0 3 3 5 3 3 1 1 3 3 1 1 2 1 1 1 1 1 2 1 2 3 2 6 11 14 17 18 20 23 22 23
16 13 10 7 6 6 6 6 6 3 6 4 5 5 3 3 2 2 2 1 1 2 1 3 4 3 6 1 4 3 4 5 4 2 1 2 3 2 7 2 7 10 19 21 18 15 14
15 12 10 8 7 7 7 8 7 8 6 6 8 6 4 3 4 4 2 2 3 1 2 4 2 4 3 8 12 9 12 14 14 15 12 5 4 2 2 3 9 6 4 5 6 8 11
14 11 9 8 7 6 5 5 6 8 10 10 7 4 3 1 3 3 3 3 4 2 4 4 2 2 7 5 3 4 3 3 8 14 13 17 9 4 4 8 13 16 12 5 8 8 8
13 12 9 9 7 4 2 1 2 4 7 9 8 5 4 2 3 1 1 1 2 2 2 1 1 6 3 3 3 4 5 2 3 4 2 10 13 7 3 5 5 2 1 2 2 3 13
15 12 10 8 5 3 3 1 1 1 2 4 3 2 2 1 3 5 3 1 1 0 3 3 4 2 1 3 5 6 7 2 6 7 5 5 6 14 13 11 8 15 12 5 4 4 2
18 15 13 10 8 6 5 4 5 3 3 2 2 2 2 2 6 9 7 5 3 2 3 2 3 2 2 4 3 5 5 4 4 9 6 10 6 7 10 9 15 14 3 6 6 13 12
13 11 10 9 7 5 5 5 3 3 4 3 3 3 5 6 6 9 12 15 14 13 9 5 3 3 2 2 2 2 3 2 3 7 3 10 11 8 8 6 1 2 7 12 10 15 21
Wind_Direction
325 338 342 328 319 318 325 323 326 329 330 332 330 330 333 338 340 340 339 340 335 329 321 316 311 307 289 260 223 259 309 343 354 352 357 129 111 112 119 116 107 101 134 156 227 283 267
272 285 294 299 305 309 311 310 313 313 315 317 317 315 319 322 330 331 331 333 335 332 325 314 309 297 264 223 230 234 265 339 352 24 45 103 115 118 105 81 65 107 137 194 176 224 261
275 292 296 296 300 305 306 308 307 305 302 300 301 306 310 316 320 327 327 331 329 331 327 317 310 291 268 250 222 222 214 314 2 45 68 93 115 100 120 125 120 119 155 135 160 314 255
286 290 292 295 300 302 302 303 301 301 299 299 301 306 305 302 307 318 323 321 321 322 322 314 311 308 281 238 224 231 188 153 13 48 81 101 102 97 74 124 91 162 200 199 123 345 278
292 293 295 298 299 300 304 306 306 306 306 305 300 297 298 301 305 311 321 322 314 312 309 305 300 290 288 265 240 223 207 161 132 98 100 106 118 95 122 167 103 106 215 247 209 42 328
287 292 295 298 300 304 310 311 313 311 308 305 297 296 300 300 312 312 323 326 313 296 295 302 288 240 269 296 256 230 254 216 142 140 100 105 79 165 149 181 217 183 214 211 279 24 324
284 289 293 296 300 306 311 315 316 317 317 314 306 304 304 299 318 324 330 346 339 313 306 256 242 252 228 219 245 260 267 251 149 128 210 39 210 213 166 112 92 117 164 267 247 352 316
279 282 288 294 304 307 312 317 316 318 315 322 325 325 314 289 330 334 345 19 4 324 305 280 254 240 234 233 252 256 239 253 209 173 147 173 234 130 116 115 122 144 177 267 276 203 317
280 287 290 296 303 309 312 309 310 309 315 317 324 326 327 279 307 329 342 3 352 344 270 300 306 208 151 216 227 222 197 224 257 176 184 202 113 148 148 148 170 200 243 203 297 320 188
276 278 284 294 304 309 308 314 314 310 311 314 323 333 327 276 301 321 344 352 348 343 310 292 0 305 100 167 247 191 186 197 221 222 162 184 138 166 169 204 202 228 168 129 308 330 300
266 272 281 294 302 305 312 318 318 314 307 313 326 335 333 273 270 336 329 344 344 358 316 9 52 182 139 199 136 192 185 178 233 172 209 150 165 166 189 220 187 88 113 19 15 293 302
257 265 276 288 295 311 319 320 322 320 318 313 314 323 336 286 258 273 301 329 347 263 248 343 12 41 234 264 121 119 204 122 112 135 27 81 72 198 93 109 89 135 135 108 122 176 235
246 252 261 281 311 320 325 336 338 327 319 315 307 300 307 240 212 234 286 328 267 226 52 4 0 65 301 233 229 212 195 177 197 159 182 145 163 147 171 132 146 190 216 267 248 226 315
226 233 241 271 307 318 333 336 337 334 331 328 324 289 292 260 228 235 257 209 206 308 277 326 290 159 268 192 190 188 180 238 228 220 146 166 197 181 172 252 173 180 245 227 270 267 313
209 211 220 248 329 324 326 336 352 358 1 7 342 322 278 230 197 193 213 219 219 214 292 314 298 342 91 157 316 273 224 276 262 203 236 158 117 137 190 122 288 150 190 38 70 123 258
197 203 211 226 250 16 7 355 9 17 355 359 28 358 320 238 182 183 201 257 268 236 295 251 319 13 13 17 347 304 246 30 329 222 327 155 125 217 121 129 59 264 134 144 171 281 266
187 192 201 209 217 221 318 346 2 21 23 19 61 76 354 129 152 173 221 236 300 301 277 292 217 73 25 19 1 292 298 68 6 342 272 196 272 135 158 205 181 147 182 93 78 225 266
185 186 193 197 202 199 212 358 13 3 68 109 113 109 23 159 133 193 213 234 322 308 312 291 272 260 261 337 298 287 297 6 350 285 123 22 342 188 177 101 357 276 236 211 225 189 234
179 180 198 202 216 233 240 256 15 18 132 141 118 109 72 165 223 212 273 274 309 292 303 296 340 22 350 230 225 255 213 150 10 36 34 53 230 200 186 186 145 221 198 214 228 218 232
178 184 190 188 186 226 260 249 244 289 95 161 113 149 89 108 173 263 296 259 258 244 274 274 256 158 34 245 176 296 321 43 7 15 345 267 241 259 269 70 97 190 188 209 224 236 253
173 175 174 163 136 113 62 8 263 236 200 144 111 117 127 144 137 124 226 300 280 269 253 270 266 247 214 237 220 220 252 282 68 4 343 298 257 247 264 267 248 260 263 254 243 248 258
169 168 164 153 137 118 92 56 42 196 195 169 122 145 148 90 7 291 215 234 255 323 290 258 265 132 214 245 324 65 40 231 282 10 75 1 252 272 259 261 262 264 257 258 257 262 270
168 163 154 143 127 113 91 77 60 80 181 135 145 148 131 155 168 233 207 175 295 12 125 37 345 290 231 321 5 344 252 251 255 275 221 248 202 214 271 289 285 263 248 251 262 256 250
165 163 161 151 136 114 92 79 73 70 91 122 153 152 153 181 220 216 261 290 282 68 289 319 326 338 0 333 305 269 249 251 249 247 227 240 219 229 275 288 255 278 307 263 266 269 234
166 171 166 164 151 124 85 73 69 71 78 81 97 133 146 168 217 228 254 259 281 272 258 271 305 267 313 315 294 285 211 241 238 234 230 224 226 240 240 239 296 300 291 202 202 275 261
178 176 176 178 166 140 115 52 65 87 79 78 74 74 92 143 200 167 280 296 293 303 266 256 269 317 280 245 224 238 243 245 232 178 356 204 219 226 194 251 257 337 42 105 187 218 117
191 189 192 199 195 196 214 201 210 72 75 68 62 66 70 261 223 178 204 234 177 177 291 285 336 312 293 220 234 243 244 254 239 234 182 160 194 216 226 242 259 269 267 283 246 78 56
198 202 209 216 218 186 199 241 256 275 297 322 288 300 254 253 260 252 237 192 179 207 255 313 279 188 225 230 243 234 245 225 255 247 222 208 204 208 223 237 247 232 223 231 12 320 319
174 175 177 184 198 211 220 229 248 270 282 266 260 246 245 253 265 263 262 265 261 260 251 227 267 254 259 262 233 295 265 273 268 250 208 244 236 248 227 226 23 93 326 311 330 312 317
Height
1570 1570 1570 1569 1569 1568 1567 1565 1564 1562 1560 1558 1554 1551 1548 1546 1543 1540 1537 1534 1531 1528 1526 1522 1519 1517 1516 1515 1511 1512 1512 1511 1510 1509 1507 1505 1505 1507 1508 1511 1513 1513 1518 1519 1520 1521 1520
1568 1567 1568 1567 1565 1565 1563 1562 1562 1560 1558 1555 1552 1549 1547 1544 1541 1538 1534 1532 1529 1526 1523 1521 1518 1516 1516 1514 1510 1508 1511 1511 1510 1508 1507 1505 1505 1506 1510 1513 1513 1517 1518 1519 1520 1520 1519
1566 1566 1564 1564 1564 1563 1561 1560 1558 1555 1552 1550 1548 1546 1545 1543 1540 1537 1534 1531 1527 1524 1521 1519 1518 1515 1515 1513 1509 1508 1508 1510 1510 1509 1508 1507 1507 1509 1511 1514 1516 1516 1516 1517 1518 1518 1516
1563 1562 1561 1560 1560 1559 1557 1556 1553 1553 1550 1548 1547 1546 1542 1538 1536 1534 1532 1528 1525 1521 1519 1516 1516 1516 1514 1512 1510 1510 1507 1508 1509 1509 1508 1508 1509 1509 1512 1516 1517 1515 1513 1508 1516 1517 1516
1560 1559 1557 1556 1554 1553 1552 1551 1551 1549 1549 1546 1543 1539 1537 1538 1534 1531 1528 1526 1522 1519 1517 1514 1513 1514 1514 1512 1512 1510 1510 1506 1507 1509 1509 1509 1510 1512 1514 1511 1514 1511 1507 1510 1511 1519 1516
1554 1554 1553 1552 1551 1549 1548 1546 1545 1545 1543 1543 1540 1536 1535 1532 1532 1529 1527 1524 1518 1514 1513 1514 1513 1514 1513 1513 1513 1510 1510 1507 1506 1508 1510 1510 1511 1510 1512 1510 1508 1506 1507 1515 1512 1515 1516
1551 1549 1549 1549 1548 1546 1544 1542 1541 1540 1539 1538 1537 1534 1532 1531 1530 1531 1527 1520 1519 1516 1514 1512 1511 1510 1509 1510 1511 1511 1511 1509 1505 1507 1507 1511 1509 1506 1503 1510 1510 1511 1512 1512 1513 1519 1516
1548 1546 1545 1545 1543 1542 1540 1539 1538 1538 1536 1534 1533 1531 1530 1530 1530 1529 1528 1524 1526 1526 1515 1508 1506 1506 1507 1509 1508 1510 1511 1512 1507 1502 1508 1510 1506 1509 1512 1513 1513 1513 1512 1509 1512 1519 1518
1545 1544 1543 1541 1540 1539 1537 1535 1534 1533 1534 1533 1531 1529 1527 1528 1528 1529 1527 1527 1524 1522 1518 1508 1509 1507 1506 1509 1507 1508 1509 1509 1508 1504 1503 1500 1508 1513 1512 1514 1512 1512 1509 1511 1515 1516 1518
1542 1540 1540 1538 1537 1536 1534 1533 1531 1530 1531 1529 1528 1527 1525 1527 1531 1528 1527 1525 1524 1522 1519 1511 1509 1509 1506 1507 1509 1507 1507 1510 1509 1504 1505 1503 1511 1512 1513 1512 1512 1513 1514 1517 1518 1517 1508
1538 1537 1537 1535 1534 1533 1531 1529 1528 1527 1527 1527 1525 1524 1522 1524 1527 1528 1529 1525 1522 1521 1518 1513 1509 1510 1507 1509 1509 1508 1508 1508 1506 1506 1508 1503 1509 1511 1512 1510 1513 1512 1518 1520 1521 1524 1530
1534 1533 1533 1533 1531 1531 1528 1527 1526 1524 1523 1525 1523 1520 1519 1523 1526 1527 1526 1525 1524 1523 1513 1510 1508 1508 1508 1509 1508 1507 1509 1508 1509 1508 1508 1508 1511 1510 1509 1514 1514 1518 1519 1521 1528 1524 1512
1530 1529 1529 1530 1529 1528 1526 1525 1525 1524 1521 1521 1521 1521 1520 1519 1523 1524 1525 1526 1523 1521 1508 1507 1506 1507 1508 1508 1508 1508 1507 1506 1503 1506 1504 1509 1509 1511 1512 1510 1515 1515 1512 1508 1507 1507 1492
1525 1526 1526 1527 1526 1526 1524 1523 1522 1522 1520 1521 1519 1519 1520 1523 1523 1526 1527 1525 1525 1512 1511 1508 1504 1504 1505 1507 1507 1507 1505 1502 1505 1502 1500 1500 1510 1509 1509 1506 1502 1509 1508 1505 1506 1497 1489
1522 1523 1524 1523 1523 1523 1522 1521 1519 1519 1519 1516 1519 1520 1519 1517 1519 1523 1528 1523 1511 1511 1512 1510 1504 1500 1501 1506 1506 1505 1503 1502 1499 1501 1496 1496 1503 1509 1509 1508 1509 1512 1508 1514 1514 1519 1512
1520 1521 1521 1520 1521 1521 1520 1520 1517 1515 1517 1518 1517 1521 1521 1519 1520 1524 1527 1520 1514 1512 1512 1507 1504 1503 1501 1504 1503 1505 1503 1502 1500 1502 1501 1495 1501 1508 1509 1509 1511 1508 1511 1512 1511 1510 1500
1515 1518 1518 1519 1519 1518 1518 1518 1516 1514 1514 1517 1517 1516 1521 1518 1519 1524 1522 1520 1515 1511 1514 1510 1506 1502 1504 1504 1505 1504 1502 1503 1503 1502 1501 1498 1494 1509 1509 1505 1501 1511 1508 1513 1511 1511 1503
1513 1514 1515 1516 1517 1516 1516 1516 1513 1514 1513 1514 1514 1517 1517 1521 1522 1521 1522 1521 1519 1512 1513 1511 1507 1503 1504 1505 1505 1503 1503 1504 1504 1504 1500 1502 1499 1499 1497 1504 1505 1504 1500 1499 1501 1507 1511
1507 1511 1513 1513 1513 1513 1514 1513 1512 1512 1513 1512 1513 1517 1516 1517 1518 1520 1523 1522 1521 1516 1515 1514 1508 1508 1507 1504 1508 1505 1505 1506 1505 1505 1504 1504 1503 1501 1500 1503 1504 1501 1502 1500 1501 1504 1495
1504 1507 1510 1511 1510 1511 1511 1510 1510 1512 1511 1511 1511 1515 1514 1517 1520 1522 1521 1520 1517 1517 1516 1517 1512 1511 1512 1506 1504 1507 1505 1506 1506 1506 1506 1506 1503 1495 1486 1492 1494 1497 1499 1499 1497 1493 1483
1502 1504 1507 1509 1509 1509 1509 1508 1509 1510 1510 1510 1510 1514 1514 1515 1516 1518 1523 1520 1514 1513 1517 1517 1513 1509 1508 1509 1507 1507 1507 1507 1507 1507 1506 1506 1500 1500 1496 1497 1499 1496 1493 1490 1490 1488 1486
1500 1502 1505 1506 1508 1510 1509 1508 1507 1507 1510 1510 1511 1511 1516 1517 1519 1519 1519 1517 1514 1511 1516 1515 1513 1510 1510 1507 1507 1507 1509 1508 1506 1507 1506 1508 1503 1504 1503 1495 1494 1493 1489 1484 1482 1481 1480
1498 1500 1503 1506 1507 1508 1509 1506 1506 1506 1509 1506 1511 1510 1512 1517 1518 1520 1516 1516 1519 1514 1515 1517 1516 1512 1509 1510 1510 1510 1510 1509 1508 1508 1507 1506 1504 1506 1491 1496 1495 1489 1477 1474 1471 1475 1475
1497 1499 1503 1504 1507 1509 1508 1507 1507 1506 1506 1504 1509 1509 1512 1511 1515 1514 1519 1516 1518 1515 1515 1517 1516 1514 1514 1512 1510 1508 1508 1506 1506 1504 1506 1503 1504 1503 1500 1499 1492 1467 1471 1472 1472 1468 1468
1495 1501 1501 1505 1507 1507 1508 1510 1509 1507 1506 1505 1509 1509 1511 1514 1516 1515 1518 1516 1517 1515 1516 1515 1514 1514 1513 1512 1509 1504 1500 1501 1495 1496 1498 1500 1500 1500 1497 1489 1474 1473 1462 1467 1466 1462 1462
1497 1499 1502 1503 1505 1506 1508 1510 1510 1509 1508 1505 1511 1513 1509 1515 1515 1514 1516 1516 1516 1513 1514 1514 1513 1512 1512 1510 1507 1506 1495 1491 1489 1493 1496 1497 1498 1498 1495 1496 1482 1463 1467 1465 1463 1459 1466
1496 1496 1500 1503 1503 1503 1508 1509 1511 1509 1507 1506 1511 1511 1510 1514 1514 1513 1514 1515 1516 1516 1515 1514 1513 1511 1511 1507 1504 1499 1495 1494 1489 1483 1490 1493 1494 1491 1489 1488 1473 1468 1468 1467 1464 1464 1468
1493 1495 1498 1501 1502 1501 1507 1507 1511 1508 1505 1506 1511 1510 1513 1511 1512 1510 1511 1513 1514 1515 1515 1515 1513 1510 1509 1507 1502 1495 1492 1488 1489 1482 1481 1481 1484 1482 1482 1480 1477 1463 1467 1466 1465 1464 1466
1491 1492 1495 1500 1502 1502 1505 1506 1505 1506 1504 1508 1508 1508 1512 1512 1511 1509 1509 1508 1509 1511 1514 1512 1510 1509 1507 1505 1503 1502 1495 1496 1490 1482 1481 1481 1472 1468 1469 1458 1461 1463 1465 1465 1465 1462 1460